Location: Albany
(35.0000°S, 118.0000°E)
Time: 14:31:42
(UTC-04:00)

X-37B - Visible Passes

Search period start: 22 June 2021 00:00
Search period end: 02 July 2021 00:00
Orbit: 386 x 389 km, 45.0° (Epoch: 10 June)

Date Brightness Start Highest point End Pass type
(mag) Time Alt. Az. Time Alt. Az. Time Alt. Az.
25 Jun 3.8 18:23:25 10° N 18:25:18 15° NE 18:27:12 10° E visible
27 Jun 2.6 18:02:09 10° NNW 18:05:01 30° NE 18:07:54 10° ESE visible
28 Jun 3.5 17:06:06 14° NNE 17:06:50 15° NE 17:08:45 10° E visible
28 Jun 0.7 18:40:00 10° WNW 18:43:11 61° SSW 18:46:24 10° SE visible
29 Jun 0.9 17:43:51 40° NNW 17:44:49 66° NE 17:48:02 10° ESE visible
30 Jun 3.9 16:48:54 13° E 16:48:54 13° E 16:49:26 10° ESE visible
30 Jun 1.4 18:21:13 18° W 18:23:09 34° SSW 18:26:09 10° SE visible
01 Jul 2.1 17:26:02 31° SE 17:26:02 31° SE 17:27:55 10° SE visible
